Погода в Вогваздином

Россия / Республика Коми     62°12′08″N   50°26′05″E
В апреле 2022 года жителям России запретили посещать сайт meteo.paraplan.net по решению Генеральной прокуратуры. Аудитория сайта уменьшилась в 10 раз. Владельцы сайта не видят смысла в поддержке погодного сервера в таких условиях. Сайт будет закрыт в октябре.
темп.,
°C
ветер,
м/с
пор.,
м/с
влажн.,
%
обл.,
%
осадки,
мм/ч
давл.,
гПа
погр.,
м
26 сентября, пн
пн2600:00+3в513745 0.0 1016625
03:00+1в514765 0.0 1016663
06:00+1в515755 0.0 1017661
09:00+4в512583 0.0 1017752
12:00+8в58432 0.0 10171015
15:00+8в48435 0.0 10181128
18:00+4вюв38555 0.0 1019268
21:00+1в39675 0.0 1021250
27 сентября, вт
вт2700:000в27745 0.0 1022183
03:00−1вюв2780100 0.0 1022164
06:00−1вюв2677100 0.0 1023190
09:00+3юв245797 0.0 1024461
12:00+6вюв234494 0.0 1024992
15:00+7вюв234260 0.0 10241083
18:00+2вюв246144 0.0 102574
21:000вюв25715 0.0 1026106
28 сентября, ср
ср2800:00−1вюв24780 0.0 102773
03:00−2в23815 0.0 102866
06:00−2в25793 0.0 1028136
09:00+4вюв35510 0.0 1029558
12:00+7вюв34380 0.0 10281041
15:00+7вюв34370 0.0 10281085
18:00+1в26590 0.0 102889
21:00−1вюв27690 0.0 1029127
29 сентября, чт
чт2900:00−2вюв26735 0.0 1030113
03:00−2в26745 0.0 1030118
06:00−2в27740 0.0 1031167
09:00+3вюв36490 0.0 1031541
12:00+6вюв45380 0.0 10301089
15:00+7вюв35390 0.0 10301123
18:00+1вюв27610 0.0 1031135
21:00−1вюв29720 0.0 1032189
30 сентября, пт
пт3000:00−2юв27772 0.0 1033154
03:00−2юв27783 0.0 1033153
06:00−2юв287718 0.0 1034199
09:00+3ююв47535 0.0 1034527
12:00+6ююв464260 0.0 1033987
15:00+7ююв364448 0.0 10321024
18:00+1юв276843 0.0 1032134
21:00−1ююв287749 0.0 1032163